Regional Weather Roundup
Issued by NWS

Home | Current Version | Previous Version | Graphics & Text | Print | Product List | Glossary On
Versions: 1 2 3 4 5 6 7 8 9 10 11 12 13 14 15 16 17 18 19 20 21 22 23 24 25 26 27 28 29 30 31 32 33 34 35 36 37 38 39 40 41 42 43 44 45 46 47 48 49 50
280
ASUS44 KMEG 240610
RWRTN
TENNESSEE HOURLY STATE WEATHER ROUNDUP
NATIONAL WEATHER SERVICE MEMPHIS TN
100 AM CDT FRI MAR 24 2017

TNZ002-004-019-021-049-052-054-088>092-240700-
WEST TENNESSEE

CITY           SKY/WX    TMP DP  RH WIND       PRES   REMARKS
MEMPHIS INTL   CLEAR     70  54  56 S13       30.10F
NWS MEMPHIS      N/A     69 N/A N/A MISG        N/A
JACKSON        CLEAR     69  53  56 S10G22    30.13S
DYERSBURG      CLEAR     66  53  63 SE7       30.10F
SOMERVILLE     PTCLDY    70  54  56 S10G25    30.11S
BOLIVAR        PTCLDY    68  54  60 SE14G20   30.13F
PARIS          CLEAR     63  48  59 S12       30.14R
HUNTINGDON     PTCLDY    66  52  59 S13       30.13R
SAVANNAH       MOCLDY    66  54  63 S13G22    30.17R
$$

TNZ008-025-027-028-033-062-065-066-240700-
NORTH MIDDLE TENNESSEE

CITY           SKY/WX    TMP DP  RH WIND       PRES   REMARKS
NASHVILLE      CLEAR     61  44  53 S13       30.23S
PORTLAND       CLOUDY    59  43  55 S15G22    30.21F
CLARKSVILLE    CLEAR     62  46  55 S9        30.16S
SMYRNA         CLEAR     60  43  53 S13G21    30.25S
COOKEVILLE     PTCLDY    55  37  50 S12       30.27F
GALLATIN       CLOUDY    59  43  55 SE9       30.26S
CROSSVILLE     CLEAR     53  35  50 S12G21    30.32F
$$

TNZ061-075-076-078-094-096-097-240700-
SOUTH MIDDLE TENNESSEE

CITY           SKY/WX    TMP DP  RH WIND       PRES   REMARKS
FAYETTEVILLE   MOCLDY    59  46  63 S20G26    30.27S
TULLAHOMA      CLEAR     57  37  47 SE13      30.28S
WINCHESTER     CLEAR     57  41  54 SE17G28   30.29S
MCMINNVILLE    CLEAR     57  39  51 S8        30.28S
COLUMBIA       CLEAR     63  50  63 S14       30.21R
SHELBYVILLE    CLEAR     61  45  55 S15       30.26F
$$

TNZ017-018-042-046-047-240700-
NORTHEAST TENNESSEE

CITY           SKY/WX    TMP DP  RH WIND       PRES   REMARKS
TRI CITIES     PTCLDY    50  26  39 S5        30.38R
ELIZABETHTON   CLEAR     46  28  49 E5        30.39R
$$

TNZ012-013-036-069-073-074-240700-
CENTRAL EAST TENNESSEE

CITY           SKY/WX    TMP DP  RH WIND       PRES   REMARKS
KNOXVILLE      CLOUDY    56  37  49 SW10      30.34R
OAK RIDGE      CLOUDY    57  35  43 VRB3      30.37R
DOWNTOWN KNOXV CLOUDY    52  43  71 W3        30.35S
GATLINBURG     CLEAR     45  39  81 CALM      30.35R
MORRISTOWN     MOCLDY    50  32  50 CALM      30.35R
JACKSBORO      MOCLDY    57  37  47 S10       30.36S
$$

TNZ083-085-099-240700-
SOUTHEAST TENNESSEE

CITY           SKY/WX    TMP DP  RH WIND       PRES   REMARKS
CHATTANOOGA    CLOUDY    59  35  40 S10G18    30.36F
$$

SKY/WX REPORTED AS FAIR MEANS FEW OR NO CLOUDS BELOW
12 THOUSAND FEET.





USA.gov is the U.S. government's official web portal to all federal, state and local government web resources and services.